Flag for Dominican Republic Past Weather in Santiago de los Caballeros, Dominican Republic — Yesterday and Last 2 Weeks

Now
81 °F

Passing clouds.


Feels Like: 81 °F
Forecast: 64 / 80 °F
Wind: 9 mph from Southeast

Location: Santiago

Current Time: Jan 18, 2017 at 2:34:11 pm

Latest Report: Jan 18, 2017 at 2:00 pm


Visibility: N/A

Pressure: 30.04 "Hg

Humidity: 51%

Dew Point: 61 °F

Location of Santiago de los CaballerosLocation

Past Weather in Santiago de los Caballeros — Graph

°F

Santiago de los Caballeros Temperature Yesterday

Maximum temperature yesterday: 79 °F (at 12:00 pm)
Minimum temperature yesterday: 63 °F (at 3:00 am)
Average temperature yesterday: 70 °F

High & Low Weather Summary for the Past Weeks

 TemperatureHumidityPressure
High86 °F (Jan 7, 3:00 pm)100% (Jan 4, 2:00 am)30.18 "Hg (Jan 4, 2:00 am)
Low59 °F (Jan 18, 7:00 am)51% (Jan 5, 3:00 pm)29.86 "Hg (Jan 4, 4:00 pm)
Average72 °F88%30.07 "Hg
* Reported Jan 3 1:00 pm — Jan 18 1:00 pm, Santiago de los Caballeros, Weather by CustomWeather, © 2017

Note: Actual official high and low records may vary slightly from our data, if they occured in-between our weather recording intervals... More about our weather records

Advertising

Santiago de los Caballeros Weather History for the Previous 24 Hours

Scroll right to see more
 ConditionsComfort  
Time TempWeatherWind HumidityBarometerVisibility
1:00 pm
Wed, Jan 18
79 °FPassing clouds.7 mph58%30.09 "HgN/A
12:00 pm79 °FScattered clouds.6 mph61%30.12 "HgN/A
11:00 am77 °FPassing clouds.3 mph61%30.15 "HgN/A
10:03 am73 °FPassing clouds.No wind78%30.15 "HgN/A
9:00 am66 °FPassing clouds.No wind94%30.15 "HgN/A
8:00 am61 °FScattered clouds.No wind94%30.12 "Hg4 mi
7:00 am59 °FFog.No wind100%30.09 "Hg3 mi
6:00 am61 °FPassing clouds.No wind100%30.09 "HgN/A
5:00 am64 °FPassing clouds.No wind100%30.09 "HgN/A
4:00 am64 °FPassing clouds.No wind100%30.09 "HgN/A
3:00 am66 °FPassing clouds.No wind100%30.09 "HgN/A
2:00 am66 °FPassing clouds.6 mph100%30.12 "HgN/A
1:00 am66 °FPassing clouds.7 mph100%30.12 "HgN/A
12:00 am66 °FPassing clouds.5 mph100%30.15 "HgN/A
11:00 pm
Tue, Jan 17
68 °FPassing clouds.No wind94%30.15 "HgN/A
10:00 pm70 °FPassing clouds.No wind100%30.12 "HgN/A
9:00 pm70 °FPassing clouds.No wind100%30.12 "HgN/A
8:00 pm72 °FPassing clouds.12 mph94%30.09 "HgN/A
7:00 pm73 °FPassing clouds.6 mph89%30.09 "HgN/A
6:00 pm75 °FScattered clouds.9 mph83%30.07 "HgN/A
5:00 pm77 °FScattered showers. Scattered clouds.14 mph79%30.04 "Hg4 mi
4:00 pm79 °FScattered clouds.12 mph74%30.04 "HgN/A
3:00 pm75 °FScattered showers. Scattered clouds.7 mph74%N/A4 mi
2:00 pm77 °FScattered showers. Scattered clouds.6 mph69%30.09 "Hg4 mi
Weather by CustomWeather, © 2017

See weather overviewHow to use our weather pages